Location: *
(46.6667°N, 7.1000°E)
Time: 00:49:55
(UTC+00:00)

Daily predictions for brighter satellites

Satellite Brightness Start Highest point End
(mag) Time Altitude Azimuth Time Altitude Azimuth Time Altitude Azimuth
Cosmos 2322 Rocket 3.7 00:05:30 10° NW 00:08:30 25° WNW 00:08:30 25° WNW
Cosmos 2251 Rocket 4.4 00:07:28 10° NNW 00:11:10 42° NW 00:11:10 42° NW
Meteor 1-22 Rocket 4.3 00:13:36 73° N 00:13:36 73° N 00:18:50 10° N
CZ-4B R/B 4.5 00:08:42 10° NNE 00:12:05 37° ENE 00:12:05 37° ENE
Cosmos 1934 Rocket 4.2 00:09:49 10° N 00:15:51 59° ENE 00:16:09 58° E
Timation 2 Rocket 4.1 00:19:31 70° ESE 00:19:35 70° ESE 00:26:10 10° NNE
Meteor 1-24 Rocket 4.2 00:19:38 10° NNW 00:23:43 48° NW 00:23:43 48° NW
SL-16 R/B 3.4 00:25:51 34° ESE 00:27:48 45° ENE 00:33:36 10° N
Cosmos 2239 Rocket 4.4 00:21:50 10° N 00:28:11 83° W 00:28:11 83° W
CZ-2D R/B 3.6 00:23:38 10° NE 00:28:14 27° E 00:28:29 27° E
ATLAS 2AS CENTAUR R/B 3.7 00:30:49 10° NW 00:38:26 50° NE 00:45:27 10° ESE
SL-16 R/B 4.4 00:36:06 10° WNW 00:37:18 13° WNW 00:37:18 13° WNW
Cosmos 2227 Rocket 3.8 00:52:29 22° ESE 00:53:13 23° ESE 00:57:33 10° NE
COSMOS 2428 2.7 00:48:43 10° NNW 00:53:51 69° WNW 00:53:51 69° WNW
NPP 4.3 00:49:55 10° NNE 00:55:03 43° E 00:55:25 43° ESE
Nadezhda 3 Rocket 4.4 00:58:17 46° W 00:58:31 46° WNW 01:04:27 10° N
USA 215 3.4 00:52:22 10° NE 00:58:53 70° NNW 01:00:50 47° W
Cosmos 1371 Rocket 4.1 00:59:40 66° E 00:59:40 66° E 01:04:37 10° NNE
Cosmos 2360 Rocket 3.9 00:57:01 10° NW 00:59:19 20° WNW 00:59:19 20° WNW
Cosmos 1726 Rocket 4.2 01:02:47 53° NE 01:02:47 53° NE 01:06:19 10° NNE
H-2A R/B 2.6 01:08:01 54° N 01:08:01 54° N 01:11:23 10° N
Cosmos 2297 Rocket 3.3 01:08:37 31° ESE 01:09:29 32° ESE 01:14:27 10° NE
Cosmos 2219 Rocket 2.5 01:04:39 10° NNW 01:09:16 53° WNW 01:09:16 53° WNW
COSMOS 2455 2.8 01:04:35 10° NW 01:10:15 66° W 01:10:15 66° W
Cosmos 1953 3.4 01:17:29 40° NNW 01:17:29 40° NNW 01:20:11 10° N
Cosmos 1703 4.4 01:12:34 10° N 01:15:58 39° ENE 01:15:58 39° ENE
Cosmos 407 Rocket 3.7 01:15:44 10° NNW 01:20:10 56° WNW 01:20:10 56° WNW
Lacrosse 4 Rocket 4.1 01:17:25 10° NW 01:17:26 10° NW 01:17:26 10° NW
Cosmos 1954 Rocket 4.1 01:21:29 10° NNW 01:26:50 76° ENE 01:28:01 54° SE
Cosmos 2100 Rocket 4.5 01:20:40 10° N 01:26:57 58° ENE 01:30:24 27° SE
Cosmos 1140 Rocket 3.3 01:24:53 10° NNW 01:30:08 80° WSW 01:30:17 79° SW
Cosmos 2237 Rocket 2.2 01:25:40 10° NNW 01:31:22 84° ENE 01:33:18 44° SSE
SeaSat 1 2.3 01:26:50 10° NNE 01:31:49 85° ESE 01:32:06 79° S
Cosmos 1980 3.6 01:26:53 10° NNW 01:32:36 89° WSW 01:34:05 52° SSE
USA 267 3.2 01:33:17 53° SSW 01:33:49 54° SW 01:40:14 10° WNW
Cosmos 1606 Rocket 4.4 01:34:47 41° NW 01:34:47 41° NW 01:38:22 10° N
Resurs 1-4 Rocket 1.9 01:30:27 10° NNE 01:35:44 85° WNW 01:36:21 70° SSW
Cosmos 676 Rocket 3.9 01:30:51 10° NNW 01:36:14 85° WSW 01:37:00 66° S
CZ-4C R/B 4.3 01:32:02 11° WNW 01:36:20 23° NNW 01:41:23 10° NNE
Meteor 1-11 4.4 01:32:24 10° N 01:38:01 69° ENE 01:40:15 37° SSE
Cosmos 2228 3.7 01:39:02 43° NW 01:39:02 43° NW 01:42:29 10° N
SL-16 R/B 3.4 01:33:09 10° NNW 01:38:31 41° NE 01:43:52 10° SE
AQUA 3.7 01:34:50 10° NNE 01:39:38 86° ESE 01:39:58 77° S
Cosmos 1605 Rocket 4.2 01:33:31 10° NNW 01:39:38 52° W 01:40:25 49° WSW
NOSS 0 Rocket 3.9 01:35:09 10° NW 01:41:14 61° WSW 01:42:04 56° SSW
NOSS 3-4 (A) 4.0 01:37:16 10° NW 01:44:13 72° NE 01:51:51 10° SE
NOSS 3-4 (C) 4.0 01:37:22 10° NW 01:44:20 72° NE 01:51:57 10° SE
Cosmos 2333 Rocket 3.3 01:42:02 10° NW 01:45:32 28° WNW 01:45:32 28° WNW
Cosmos 1459 Rocket 4.0 01:43:27 10° N 01:49:41 77° E 01:52:53 30° SSE
CZ-4B R/B 2.9 01:51:04 29° E 01:51:39 32° ENE 01:54:36 10° N
NOSS 3-3 (C) 4.2 01:51:25 43° WSW 01:53:24 63° NW 02:00:07 10° NE
NOSS 3-3 (A) 4.2 01:51:25 42° WSW 01:53:25 62° NW 02:00:08 10° NE
Cosmos 2219 3.2 01:52:19 54° SW 01:53:38 75° WNW 01:59:26 10° NNE
Cosmos 2058 Rocket 3.4 01:55:09 50° WNW 01:55:09 50° WNW 01:59:30 10° N
Cosmos 2082 4.4 01:53:05 32° SSE 01:55:15 46° ESE 02:00:43 10° NE
Cosmos 1908 3.1 01:59:20 83° NNE 01:59:20 83° NNE 02:03:03 10° N
Cosmos 2056 Rocket 4.0 02:01:04 41° W 02:02:08 46° WNW 02:07:22 10° NNE
Cosmos 1850 Rocket 4.3 01:57:26 10° NNW 02:02:40 66° ENE 02:07:49 10° SSE
Meteor 2-10 4.2 02:01:59 47° SSW 02:03:43 80° WNW 02:09:30 10° N
CZ-2D R/B 2.6 02:03:16 10° N 02:08:31 48° WNW 02:09:49 40° WSW
Cosmos 1076 Rocket 3.9 02:06:55 10° N 02:11:09 61° E 02:13:19 27° SSE
SL-16 R/B 3.1 02:10:57 34° WSW 02:11:31 35° W 02:17:07 10° NNW
Cosmos 1741 Rocket 4.1 02:06:59 10° NNW 02:12:19 77° ENE 02:17:39 10° SSE
ERBS 3.9 02:15:44 25° NW 02:16:17 27° NNW 02:19:14 10° NE
Cosmos 1726 2.9 02:17:01 39° WNW 02:17:01 39° WNW 02:20:13 10° N
Spot 4 Rocket 4.2 02:13:56 10° NNE 02:19:06 70° ESE 02:21:42 30° S
CZ-4C R/B 4.3 02:21:21 28° WNW 02:21:21 28° WNW 02:23:31 10° NNW
ADEOS II 2.1 02:16:10 10° NNE 02:21:28 82° ESE 02:24:01 32° S
deb Chang Zheng 4 3.7 02:18:26 10° N 02:22:40 55° WNW 02:23:29 47° WSW
ARIANE 5 R/B 2.5 02:21:54 10° NNE 02:27:11 84° WNW 02:29:37 33° SSW
Cosmos 1300 3.1 02:26:15 33° SSE 02:27:43 60° E 02:31:30 10° NNE
Cosmos 1271 Rocket 3.9 02:25:51 10° NNW 02:28:24 27° WNW 02:28:24 27° WNW
ATLAS 2AS CENTAUR R/B 3.0 02:22:11 10° NW 02:29:30 49° WSW 02:36:12 10° S
Cosmos 2061 Rocket 4.0 02:23:36 10° NNW 02:30:00 73° W 02:34:54 18° S
IRS-1D 4.1 02:29:25 10° N 02:34:18 44° WNW 02:36:09 32° WSW
Okean 3 Rocket 4.2 02:29:59 10° N 02:34:19 55° ENE 02:38:37 10° SSE
IRS-1C 4.4 02:30:04 10° N 02:35:16 54° WNW 02:37:30 32° SW
Cosmos 2227 Rocket 2.4 02:34:19 33° SW 02:36:48 60° WNW 02:42:26 10° NNE
SL-08 R/B 4.0 02:37:21 33° WSW 02:38:13 36° W 02:42:47 10° NNW
SL-08 R/B 4.5 02:32:12 10° N 02:38:39 79° W 02:45:03 10° S
Cosmos 1356 3.3 02:38:46 48° SSW 02:39:40 87° WNW 02:43:09 10° N
Meteor 1-28 Rocket 3.9 02:37:12 10° SSE 02:40:49 54° ENE 02:44:28 10° N
USA 215 4.4 02:35:23 10° NE 02:41:21 39° N 02:47:19 10° WNW
Cosmos 1420 Rocket 4.5 02:40:10 30° WSW 02:42:16 46° WNW 02:47:22 10° NNE
CZ-3 Stage 3 4.4 02:36:19 24° SW 02:42:41 44° SSE 03:32:14 10° ESE
Landsat 5 4.3 02:43:18 28° W 02:43:18 28° W 02:46:20 10° NW
Cosmos 2173 Rocket 4.4 02:37:35 10° NNW 02:43:26 44° W 02:46:40 25° SW
H-2A R/B 4.3 02:45:07 10° WNW 02:45:07 10° WNW 02:45:15 10° WNW
Intercosmos 25 Rocket 3.0 02:43:36 31° S 02:45:05 75° E 02:48:15 10° NNE
Cosmos 1461 2.7 02:43:41 38° SW 02:45:09 86° NW 02:49:10 10° NE
Cosmos 2297 Rocket 2.8 02:50:26 25° WSW 02:53:21 45° NW 02:58:48 10° NNE
Cosmos 1331 Rocket 4.3 02:51:48 16° S 02:55:59 66° ESE 03:01:16 10° NNE
Cosmos 1110 Rocket 4.1 02:53:40 18° SSW 02:57:35 75° ESE 03:02:52 10° NNE
Cosmos 1452 Rocket 4.2 02:57:07 24° WSW 02:59:45 39° WNW 03:04:42 10° N
CZ-2D R/B 3.7 02:55:42 10° N 03:00:01 57° WNW 03:02:27 24° SW
IDEFIX/ARIANE 42P 3.6 02:59:15 10° NNE 03:04:15 45° E 03:09:15 10° S
Cosmos 1892 3.0 03:04:34 10° N 03:08:23 70° E 03:12:13 10° SSE
SeaSat 1 4.2 03:05:17 10° N 03:08:47 20° NW 03:11:53 11° W
Meteor 2-1 Rocket 4.3 03:04:42 13° SSW 03:09:59 77° WNW 03:15:51 10° N
Cosmos 1242 Rocket 3.7 03:07:33 10° NW 03:10:18 22° W 03:10:30 22° W
Cosmos 1943 4.3 03:05:00 10° NNW 03:10:31 48° NE 03:16:01 10° SE
Cosmos 1603 4.1 03:08:12 10° NNW 03:13:48 67° ENE 03:19:25 10° SE
Cosmos 1408 4.2 03:10:54 10° N 03:14:14 36° ENE 03:17:33 10° SE
Cosmos 2237 Rocket 3.7 03:11:22 10° WNW 03:14:40 16° W 03:15:02 16° WSW
Resurs 1-4 Rocket 4.0 03:12:01 10° NNW 03:14:47 14° NW 03:17:25 10° W
CZ-2C R/B 3.4 03:17:08 10° N 03:20:57 41° WNW 03:23:40 17° SW
Cosmos 2058 3.5 03:17:13 10° NNW 03:20:57 34° W 03:24:01 14° SSW
Cosmos 1689 Rocket 3.4 03:22:02 21° WSW 03:22:30 22° W 03:24:57 10° NW
SL-16 R/B 2.8 03:17:28 10° NW 03:22:33 35° WSW 03:27:36 10° S
Cosmos 2233 Rocket 4.0 03:17:05 10° NNW 03:23:09 61° W 03:29:09 10° S
CZ-4B R/B 3.2 03:24:23 15° W 03:24:23 15° W 03:26:07 10° NW
Cosmos 332 Rocket 4.3 03:22:59 10° S 03:27:43 60° ESE 03:32:26 10° NNE
OE (NEXTSAT) 4.3 03:34:25 12° W 03:37:34 82° S 03:41:05 10° E
Cosmos 2285 Rocket 4.1 03:31:36 10° NNW 03:38:01 88° WSW 03:44:27 10° SSE
Cosmos-2242 3.6 03:34:35 12° SW 03:38:11 39° WNW 03:42:13 10° N
H-2A R/B 2.5 03:44:31 10° N 03:48:50 69° WNW 03:52:56 10° SSW
Cosmos 968 Rocket 4.5 03:44:03 10° NNW 03:49:07 53° ENE 03:54:10 10° SE
Cosmos 1408 Rocket 3.9 03:49:10 10° NNW 03:53:27 45° W 03:57:42 10° SSW
Meteor 2-3 Rocket 4.0 03:51:40 10° N 03:57:18 74° ENE 04:02:51 10° SSE
Cosmos 2263 Rocket 2.4 03:52:38 10° SSW 03:58:17 76° ESE 04:04:00 10° NNE
ADEOS II 3.8 03:57:14 10° NNW 04:00:31 17° WNW 04:03:48 10° W
Cosmos 1743 Rocket 3.6 03:56:30 10° NNW 04:00:57 73° W 04:05:23 10° S
COSMOS 2441 4.4 03:57:25 10° NNE 04:02:15 86° ESE 04:07:03 10° SSW
Cosmos 1455 2.4 03:59:07 10° SSW 04:02:44 48° WNW 04:06:24 10° N
ARIANE 5 R/B 4.5 04:02:45 10° NNW 04:05:29 14° NW 04:08:13 10° W
Cosmos 2151 4.2 04:02:29 10° NW 04:05:49 23° W 04:09:07 10° SW
MSX 3.9 04:00:23 10° NNE 04:06:12 84° WNW 04:11:59 10° SSW
